| time (UTC) | temp C | wind direction | speed KPH | gust KPH | rain 1hr cm | rain 24hr cm | rain mn cm | humidity % | barometer mb |
| 20260507072837 | 11 | 8 | 3.2 | 16.1 | 0.00 | 0.00 | 0.00 | 70 | 1016.2 |
| 20260507071837 | 11 | 10 | 6.4 | 12.9 | 0.00 | 0.00 | 0.00 | 78 | 1015.9 |
| 20260507070836 | 10 | 3 | 4.8 | 12.9 | 0.00 | 0.00 | 0.00 | 79 | 1015.9 |
| 20260507065838 | 10 | 8 | 4.8 | 16.1 | 0.00 | 0.00 | 0.00 | 82 | 1016.1 |
| 20260507064837 | 10 | 12 | 9.7 | 14.5 | 0.00 | 0.00 | 0.00 | 84 | 1015.9 |
| 20260507063837 | 9 | 12 | 8.0 | 9.7 | 0.00 | 0.00 | 0.00 | 88 | 1016.0 |
| 20260507061837 | 8 | 2 | 6.4 | 11.3 | 0.00 | 0.00 | 0.00 | 94 | 1015.7 |
| 20260507061324 | 7 | 353 | 6.4 | 8.0 | 0.00 | 0.00 | 0.00 | 97 | 1015.6 |
| 20260507055837 | 7 | 41 | 3.2 | 6.4 | 0.00 | 0.00 | 0.00 | 99 | 1015.6 |
| 20260507054836 | 6 | 14 | 3.2 | 6.4 | 0.00 | 0.00 | 0.00 | 99 | 1015.3 |
| 20260507053839 | 6 | 14 | 0.0 | 6.4 | 0.00 | 0.00 | 0.00 | 99 | 1015.6 |
| 20260507052320 | 5 | 12 | 3.2 | 4.8 | 0.00 | 0.00 | 0.00 | 99 | 1015.2 |
| 20260507050850 | 5 | 30 | 0.0 | 3.2 | 0.00 | 0.00 | 0.00 | 99 | 1015.2 |
| 20260507045838 | 5 | 58 | 3.2 | 3.2 | 0.00 | 0.00 | 0.00 | 99 | 1015.1 |
| 20260507044838 | 5 | 21 | 1.6 | 4.8 | 0.00 | 0.00 | 0.00 | 99 | 1015.0 |
| 20260507043836 | 5 | 59 | 0.0 | 3.2 | 0.00 | 0.00 | 0.00 | 99 | 1015.1 |
| 20260507042836 | 4 | 60 | 3.2 | 3.2 | 0.00 | 0.00 | 0.00 | 99 | 1015.0 |
| 20260507041837 | 4 | 58 | 3.2 | 3.2 | 0.00 | 0.00 | 0.00 | 98 | 1014.8 |
| 20260507040837 | 4 | 40 | 0.0 | 3.2 | 0.00 | 0.00 | 0.00 | 98 | 1014.9 |
| 20260507035836 | 4 | 76 | 0.0 | 3.2 | 0.00 | 0.00 | 0.00 | 98 | 1015.1 |
| 20260507034837 | 4 | 92 | 1.6 | 3.2 | 0.00 | 0.00 | 0.00 | 98 | 1014.8 |
| 20260507033838 | 4 | 25 | 0.0 | 3.2 | 0.00 | 0.00 | 0.00 | 98 | 1014.6 |
| 20260507032313 | 4 | 75 | 0.0 | 3.2 | 0.00 | 0.00 | 0.00 | 97 | 1014.7 |
| 20260507030836 | 4 | 40 | 0.0 | 3.2 | 0.00 | 0.00 | 0.00 | 97 | 1014.4 |
| 20260507025838 | 3 | 58 | 1.6 | 3.2 | 0.00 | 0.00 | 0.00 | 97 | 1014.5 |
| 20260507024837 | 4 | 42 | 0.0 | 4.8 | 0.00 | 0.00 | 0.00 | 97 | 1014.6 |
| 20260507023836 | 4 | 251 | 3.2 | 4.8 | 0.00 | 0.00 | 0.00 | 97 | 1014.4 |
| 20260507022836 | 5 | 320 | 3.2 | 4.8 | 0.00 | 0.00 | 0.00 | 97 | 1014.4 |
| 20260507021837 | 5 | 346 | 0.0 | 3.2 | 0.00 | 0.00 | 0.00 | 96 | 1014.1 |
| 20260507020837 | 5 | 40 | 3.2 | 3.2 | 0.00 | 0.00 | 0.00 | 96 | 1014.4 |
| 20260507015836 | 5 | 42 | 1.6 | 3.2 | 0.00 | 0.00 | 0.00 | 96 | 1014.2 |
| 20260507014333 | 5 | 154 | 0.0 | 1.6 | 0.00 | 0.00 | 0.00 | 95 | 1014.1 |
| 20260507013310 | 5 | 113 | 0.0 | 3.2 | 0.00 | 0.00 | 0.00 | 94 | 1014.0 |
| 20260507011849 | 5 | 30 | 1.6 | 4.8 | 0.00 | 0.00 | 0.00 | 94 | 1013.8 |
| 20260507010837 | 5 | 351 | 3.2 | 4.8 | 0.00 | 0.00 | 0.00 | 93 | 1014.1 |
| 20260507005838 | 6 | 343 | 3.2 | 6.4 | 0.00 | 0.00 | 0.00 | 93 | 1014.0 |
| 20260507004837 | 6 | 5 | 4.8 | 9.7 | 0.00 | 0.00 | 0.00 | 93 | 1014.1 |
| 20260507003836 | 6 | 16 | 8.0 | 11.3 | 0.00 | 0.00 | 0.00 | 92 | 1014.1 |
| 20260507002837 | 6 | 11 | 8.0 | 12.9 | 0.00 | 0.00 | 0.00 | 92 | 1014.0 |
| 20260507001837 | 6 | 13 | 9.7 | 14.5 | 0.00 | 0.00 | 0.00 | 92 | 1014.1 |
| 20260507000838 | 6 | 10 | 9.7 | 14.5 | 0.00 | 0.00 | 0.00 | 92 | 1013.9 |
| 20260506235836 | 6 | 15 | 9.7 | 12.9 | 0.00 | 0.00 | 0.00 | 93 | 1013.7 |
| 20260506234837 | 6 | 15 | 9.7 | 12.9 | 0.00 | 0.00 | 0.00 | 93 | 1014.0 |
| 20260506233837 | 6 | 11 | 9.7 | 11.3 | 0.00 | 0.00 | 0.00 | 93 | 1013.9 |
| 20260506232837 | 6 | 13 | 6.4 | 12.9 | 0.00 | 0.00 | 0.00 | 93 | 1013.9 |
| 20260506231836 | 6 | 14 | 8.0 | 14.5 | 0.00 | 0.00 | 0.00 | 93 | 1013.7 |
| 20260506230836 | 6 | 16 | 11.3 | 14.5 | 0.00 | 0.00 | 0.00 | 93 | 1013.8 |
| 20260506225838 | 7 | 4 | 12.9 | 14.5 | 0.00 | 0.00 | 0.00 | 93 | 1013.6 |
| 20260506223837 | 7 | 3 | 8.0 | 14.5 | 0.00 | 0.00 | 0.00 | 92 | 1013.8 |
| 20260506222837 | 7 | 19 | 9.7 | 16.1 | 0.00 | 0.00 | 0.00 | 92 | 1013.5 |
| 20260506220837 | 7 | 4 | 12.9 | 14.5 | 0.00 | 0.00 | 0.00 | 91 | 1013.4 |
| 20260506215836 | 7 | 7 | 11.3 | 16.1 | 0.00 | 0.00 | 0.00 | 90 | 1013.4 |
| 20260506214836 | 8 | 0 | 12.9 | 19.3 | 0.00 | 0.00 | 0.00 | 89 | 1013.4 |
| 20260506213839 | 8 | 13 | 14.5 | 20.9 | 0.00 | 0.00 | 0.00 | 89 | 1013.3 |
| 20260506213323 | 8 | 12 | 11.3 | 17.7 | 0.00 | 0.00 | 0.00 | 88 | 1013.1 |
| 20260506212313 | 8 | 9 | 14.5 | 20.9 | 0.00 | 0.00 | 0.00 | 87 | 1013.2 |
| 20260506205838 | 9 | 18 | 9.7 | 19.3 | 0.00 | 0.00 | 0.00 | 83 | 1012.8 |
| 20260506203837 | 9 | 1 | 12.9 | 19.3 | 0.00 | 0.00 | 0.00 | 80 | 1012.8 |
| 20260506202320 | 10 | 357 | 11.3 | 19.3 | 0.00 | 0.00 | 0.00 | 77 | 1012.8 |
| 20260506201318 | 10 | 7 | 11.3 | 19.3 | 0.00 | 0.00 | 0.00 | 78 | 1012.7 |
| 20260506195836 | 10 | 9 | 14.5 | 17.7 | 0.00 | 0.00 | 0.00 | 79 | 1012.4 |
| 20260506194837 | 10 | 9 | 12.9 | 17.7 | 0.00 | 0.00 | 0.00 | 77 | 1012.6 |
| 20260506193837 | 10 | 18 | 8.0 | 17.7 | 0.00 | 0.00 | 0.00 | 77 | 1012.3 |
| 20260506192837 | 10 | 14 | 9.7 | 19.3 | 0.00 | 0.00 | 0.00 | 77 | 1012.1 |
| 20260506191837 | 10 | 0 | 12.9 | 17.7 | 0.00 | 0.00 | 0.00 | 76 | 1012.0 |
| 20260506190837 | 11 | 4 | 12.9 | 19.3 | 0.00 | 0.00 | 0.00 | 73 | 1011.9 |
| 20260506190325 | 11 | 5 | 12.9 | 19.3 | 0.00 | 0.00 | 0.00 | 73 | 1011.6 |
| 20260506184836 | 11 | 13 | 14.5 | 22.5 | 0.00 | 0.00 | 0.00 | 73 | 1011.7 |
| 20260506183837 | 11 | 8 | 14.5 | 24.1 | 0.00 | 0.00 | 0.00 | 73 | 1011.5 |
| 20260506182837 | 11 | 4 | 16.1 | 22.5 | 0.00 | 0.00 | 0.00 | 72 | 1011.6 |
| 20260506180837 | 12 | 17 | 16.1 | 29.0 | 0.00 | 0.00 | 0.00 | 73 | 1011.3 |
| 20260506180315 | 12 | 5 | 16.1 | 27.4 | 0.00 | 0.00 | 0.00 | 72 | 1011.1 |
| 20260506175322 | 12 | 10 | 14.5 | 22.5 | 0.00 | 0.00 | 0.00 | 71 | 1011.0 |
| 20260506173837 | 12 | 355 | 14.5 | 20.9 | 0.00 | 0.00 | 0.00 | 72 | 1010.8 |
| 20260506172836 | 12 | 17 | 9.7 | 16.1 | 0.00 | 0.00 | 0.00 | 72 | 1010.8 |
| 20260506171837 | 12 | 35 | 8.0 | 8.0 | 0.00 | 0.00 | 0.00 | 72 | 1010.6 |
| 20260506170837 | 12 | 116 | 1.6 | 8.0 | 0.00 | 0.00 | 0.00 | 70 | 1010.8 |
| 20260506165839 | 12 | 17 | 1.6 | 16.1 | 0.00 | 0.00 | 0.00 | 70 | 1010.8 |
| 20260506165315 | 12 | 75 | 9.7 | 17.7 | 0.00 | 0.00 | 0.00 | 68 | 1010.7 |
| 20260506163836 | 12 | 100 | 3.2 | 12.9 | 0.00 | 0.00 | 0.00 | 68 | 1010.8 |
| 20260506162836 | 12 | 75 | 8.0 | 8.0 | 0.00 | 0.00 | 0.00 | 68 | 1010.6 |
| 20260506161838 | 12 | 66 | 4.8 | 9.7 | 0.00 | 0.00 | 0.00 | 65 | 1010.5 |
| 20260506160836 | 12 | 39 | 6.4 | 14.5 | 0.00 | 0.00 | 0.00 | 64 | 1010.5 |
| 20260506155850 | 13 | 54 | 3.2 | 12.9 | 0.00 | 0.00 | 0.00 | 62 | 1010.5 |
| 20260506154836 | 13 | 53 | 9.7 | 17.7 | 0.00 | 0.00 | 0.00 | 61 | 1010.4 |
| 20260506153838 | 13 | 77 | 16.1 | 27.4 | 0.00 | 0.00 | 0.00 | 60 | 1010.6 |
| 20260506153314 | 13 | 68 | 4.8 | 19.3 | 0.00 | 0.00 | 0.00 | 60 | 1010.3 |
| 20260506151836 | 13 | 23 | 4.8 | 20.9 | 0.00 | 0.00 | 0.00 | 58 | 1010.4 |
| 20260506150836 | 13 | 78 | 6.4 | 25.7 | 0.00 | 0.00 | 0.00 | 56 | 1010.4 |
| 20260506145838 | 13 | 83 | 4.8 | 20.9 | 0.00 | 0.00 | 0.00 | 54 | 1010.2 |
| 20260506144836 | 13 | 77 | 12.9 | 20.9 | 0.00 | 0.00 | 0.00 | 52 | 1010.2 |
| 20260506143837 | 13 | 80 | 11.3 | 19.3 | 0.00 | 0.00 | 0.00 | 53 | 1010.3 |
| 20260506143318 | 13 | 126 | 6.4 | 19.3 | 0.00 | 0.00 | 0.00 | 54 | 1010.1 |
| 20260506141838 | 13 | 64 | 14.5 | 20.9 | 0.00 | 0.00 | 0.00 | 53 | 1010.3 |
| 20260506141310 | 13 | 71 | 6.4 | 20.9 | 0.00 | 0.00 | 0.00 | 52 | 1010.0 |
| 20260506135837 | 13 | 60 | 4.8 | 19.3 | 0.00 | 0.00 | 0.00 | 47 | 1010.2 |
| 20260506135312 | 14 | 80 | 9.7 | 17.7 | 0.00 | 0.00 | 0.00 | 49 | 1010.2 |
| 20260506133838 | 14 | 235 | 3.2 | 16.1 | 0.00 | 0.00 | 0.00 | 55 | 1010.3 |
| 20260506133312 | 15 | 15 | 9.7 | 19.3 | 0.00 | 0.00 | 0.00 | 54 | 1010.1 |
| 20260506131836 | 15 | 49 | 9.7 | 24.1 | 0.00 | 0.00 | 0.00 | 51 | 1010.1 |
| 20260506130836 | 15 | 98 | 6.4 | 16.1 | 0.00 | 0.00 | 0.00 | 53 | 1010.0 |
| 20260506125836 | 14 | 88 | 6.4 | 24.1 | 0.00 | 0.00 | 0.00 | 52 | 1009.9 |
| 20260506124836 | 14 | 135 | 8.0 | 20.9 | 0.00 | 0.00 | 0.00 | 55 | 1010.0 |
| 20260506123837 | 14 | 77 | 12.9 | 20.9 | 0.00 | 0.00 | 0.00 | 54 | 1010.0 |
| 20260506122836 | 14 | 96 | 6.4 | 22.5 | 0.00 | 0.00 | 0.00 | 56 | 1009.8 |
| 20260506121839 | 13 | 13 | 9.7 | 22.5 | 0.00 | 0.00 | 0.00 | 56 | 1009.9 |
| 20260506120837 | 14 | 17 | 8.0 | 24.1 | 0.00 | 0.00 | 0.00 | 57 | 1010.1 |
| 20260506115837 | 13 | 358 | 11.3 | 20.9 | 0.00 | 0.00 | 0.00 | 58 | 1009.9 |
| 20260506114836 | 13 | 77 | 9.7 | 19.3 | 0.00 | 0.00 | 0.00 | 59 | 1009.9 |
| 20260506114317 | 13 | 71 | 4.8 | 27.4 | 0.00 | 0.00 | 0.00 | 60 | 1009.8 |
| 20260506112836 | 13 | 357 | 16.1 | 24.1 | 0.00 | 0.00 | 0.00 | 61 | 1009.9 |
| 20260506112325 | 13 | 20 | 6.4 | 22.5 | 0.00 | 0.00 | 0.00 | 60 | 1010.0 |
| 20260506110836 | 13 | 34 | 6.4 | 22.5 | 0.00 | 0.00 | 0.00 | 62 | 1009.9 |
| 20260506105832 | 13 | 17 | 8.0 | 19.3 | 0.00 | 0.00 | 0.00 | 61 | 1009.8 |
| 20260506104834 | 13 | 92 | 12.9 | 22.5 | 0.00 | 0.00 | 0.00 | 60 | 1009.7 |
| 20260506104318 | 12 | 32 | 12.9 | 29.0 | 0.00 | 0.00 | 0.00 | 71 | 1009.7 |
| 20260506102833 | 13 | 21 | 11.3 | 22.5 | 0.00 | 0.00 | 0.00 | 76 | 1009.8 |
| 20260506100831 | 12 | 10 | 14.5 | 27.4 | 0.00 | 0.00 | 0.00 | 73 | 1009.8 |
| 20260506095831 | 13 | 104 | 3.2 | 24.1 | 0.00 | 0.00 | 0.00 | 72 | 1009.7 |
| 20260506094825 | 12 | 19 | 14.5 | 29.0 | 0.00 | 0.00 | 0.00 | 76 | 1009.4 |
| 20260506093822 | 12 | 37 | 4.8 | 27.4 | 0.00 | 0.00 | 0.00 | 79 | 1009.7 |
| 20260506092815 | 12 | 5 | 20.9 | 29.0 | 0.00 | 0.00 | 0.00 | 80 | 1009.5 |
| 20260506091814 | 12 | 3 | 11.3 | 27.4 | 0.00 | 0.00 | 0.00 | 80 | 1009.6 |
| 20260506090815 | 12 | 12 | 9.7 | 25.7 | 0.00 | 0.00 | 0.00 | 82 | 1009.5 |
| 20260506085814 | 12 | 12 | 9.7 | 25.7 | 0.00 | 0.00 | 0.00 | 82 | 1009.3 |
| 20260506084815 | 12 | 357 | 20.9 | 24.1 | 0.00 | 0.00 | 0.00 | 81 | 1009.4 |
| 20260506083815 | 12 | 328 | 3.2 | 19.3 | 0.00 | 0.00 | 0.00 | 81 | 1009.3 |
| 20260506082816 | 11 | 15 | 17.7 | 24.1 | 0.00 | 0.00 | 0.00 | 83 | 1009.3 |
| 20260506081815 | 12 | 34 | 3.2 | 19.3 | 0.00 | 0.00 | 0.00 | 84 | 1009.3 |
| 20260506080814 | 11 | 44 | 6.4 | 20.9 | 0.00 | 0.00 | 0.00 | 85 | 1009.3 |